#timestamp,LO_Frequency,Hit,StdDev 
1593043215.6,286047002.6,Y
1593043235.5,286047002.8,P
1593043255.3,286047000.1,N
1593043275.1,286046999.9,N
1593043295.9,286047000.8,N
1593043315.7,286047001.0,N
1593043335.5,286046998.8,N
1593043355.4,286046998.4,N
1593043375.2,286046998.3,N
1593043395.1,286046998.3,N
1593043396.0,286046998.3,N
1593043415.8,286046997.0,N
1593043435.6,286047000.4,N
1593043455.5,286046999.8,N
1593043475.3,286046999.7,N
1593043495.2,286047001.1,N
1593043515.9,286047000.9,N
1593043535.7,286047000.6,N
1593043555.6,286046998.1,N
1593043575.4,286046998.3,N
1593043595.2,286046998.9,N
1593043615.1,286046998.8,N
1593043616.0,286046998.8,N
1593043635.8,286046998.9,N
1593043655.7,286046998.8,N
1593043675.5,286047001.1,N
1593043695.3,286047001.0,N
1593043715.2,286046998.6,N
1593043735.0,286047000.8,N
1593043735.9,286047000.8,N
1593043755.8,286047000.0,N
1593043775.6,286047001.1,N
1593043795.4,286047000.9,N
1593043815.3,286046999.7,N
1593043835.1,286046999.3,N
1593043855.9,286046999.2,N
1593043875.7,286047001.0,N
1593043895.5,286047001.0,N
1593043915.4,286047001.2,N
1593043935.2,286046998.3,N
1593043955.1,286046998.4,N
1593043956.0,286046998.4,N
1593043975.8,286046999.2,N
1593043995.6,286046999.3,N
1593044015.5,286046998.8,N
1593044035.3,286046998.4,N
1593044055.1,286047000.6,N
1593044075.9,286047000.5,N
1593044095.7,286047001.0,N
1593044115.6,286047000.7,N
1593044135.4,286047000.8,N
1593044155.2,286047001.1,N
1593044175.1,286047001.1,N
1593044176.0,286047001.1,N
1593044195.8,286046998.6,N
1593044215.7,286046996.9,N
1593044235.5,286046998.9,N
1593044255.3,286046995.4,Y
1593044275.2,286047002.7,P
1593044295.0,286047000.7,N
1593044295.9,286047000.7,N
1593044315.8,286047000.5,N
1593044335.6,286047000.7,N
1593044355.4,286047000.0,N
1593044375.3,286046998.5,N
1593044395.1,286047000.7,N
1593044415.8,286046998.7,N
1593044435.7,286046998.1,N
1593044455.5,286046998.1,N
1593044475.4,286047000.4,N
1593044495.2,286047000.1,N
1593044515.0,286047000.4,N
1593044515.9,286047000.4,N
1593044535.8,286046998.2,N
1593044555.6,286046999.3,N
1593044575.4,286046998.3,N
1593044595.3,286047000.4,N
1593044615.1,286046999.5,N
1593044635.9,286047001.8,N
1593044655.7,286047000.9,N
1593044675.5,286047000.7,N
1593044695.4,286046998.5,N
1593044715.2,286046998.2,N
1593044735.1,286046998.9,N
1593044736.0,286046998.9,N
1593044755.8,286046998.6,N
1593044775.6,286046998.9,N
1593044795.5,286046999.3,N
1593044815.3,286046998.6,N
1593044835.1,286046998.3,N
1593044855.9,286047000.7,N
1593044875.7,286047001.0,N
1593044895.6,286046999.7,N
1593044915.4,286047002.0,N
1593044935.2,286047000.3,N
1593044955.1,286046998.6,N
1593044956.0,286046998.6,N
1593044975.8,286046998.2,N
1593044995.7,286047001.1,N
1593045015.5,286047000.7,N
1593045035.3,286047001.2,N
1593045055.2,286046996.7,N
1593045075.0,286046999.8,N
1593045075.9,286046999.8,N
1593045095.8,286047001.7,N
1593045115.6,286047002.3,N
1593045135.4,286047002.5,N
1593045155.3,286047003.5,N
1593045175.1,286047009.1,Y
1593045195.9,286047005.7,P
1593045215.7,286047001.6,N
1593045235.6,286047002.6,N
1593045255.4,286047003.6,N
1593045275.2,286047003.9,N
1593045295.1,286047005.4,N
1593045296.0,286047005.4,N
1593045315.8,286047004.3,N
1593045335.7,286047002.2,N
1593045355.5,286047001.9,N
1593045375.3,286047002.2,N
1593045395.2,286047002.8,N
1593045415.0,286047003.2,N
1593045415.9,286047003.2,N
1593045435.8,286047005.2,Y
1593045455.6,286047007.2,P
1593045475.4,286047005.0,N
1593045495.3,286047004.8,N
1593045515.1,286047004.9,Y
1593045535.9,286046998.3,P
1593045555.7,286046996.7,N
1593045575.5,286046997.8,N
1593045595.4,286046995.3,N
1593045615.2,286046997.8,N
1593045635.0,286046997.2,N
1593045635.9,286046997.2,N
1593045655.8,286046997.2,N
1593045675.3,286046997.9,N
1593045695.2,286046999.3,N
1593045715.0,286046998.3,N
1593045715.9,286046998.3,N
1593045735.8,286046999.4,N
1593045755.6,286047002.8,N
1593045775.4,286046998.3,N
1593045795.3,286047002.8,N
1593045815.1,286047000.1,N
1593045835.8,286046998.1,N
1593045855.7,286047000.6,N
1593045875.5,286046998.1,N
1593045895.4,286046997.2,N
1593045915.2,286046997.1,N
1593045935.0,286046998.8,N
1593045935.9,286046998.8,N
1593045955.8,286047000.3,N
1593045975.6,286046998.4,N
1593045995.5,286046998.6,N
1593046015.3,286047002.1,N
1593046035.1,286047000.7,N
1593046055.9,286047001.0,N
1593046075.7,286046998.6,N
1593046095.5,286047001.1,N
1593046115.4,286046999.3,N
1593046135.2,286046996.7,N
1593046155.1,286046997.9,N
1593046156.0,286046997.9,N
1593046175.8,286046995.8,N
1593046195.6,286046997.2,N
1593046215.5,286046997.3,N
1593046235.3,286046996.7,N
1593046255.2,286046996.4,N
1593046275.9,286046995.4,N
1593046295.7,286046995.6,N
1593046315.6,286046997.6,N
1593046335.4,286046997.4,N
1593046355.2,286046997.9,N
1593046375.1,286046995.0,N
1593046376.0,286046995.0,N
1593046395.8,286046996.9,N
1593046415.7,286046997.1,N
1593046435.5,286046997.4,N
1593046455.3,286046998.0,N
1593046475.2,286046997.3,N
1593046495.0,286046996.3,N
1593046495.9,286046996.3,N
1593046515.8,286046994.0,Y
1593046535.6,286046997.4,P
1593046555.4,286046997.4,P
1593046575.3,286046999.2,P
1593046595.1,286046999.4,N
1593046615.9,286046999.6,N
1593046635.7,286046998.6,N
1593046655.5,286046998.8,N
1593046675.4,286046997.0,Y
1593046695.2,286046999.0,P
1593046715.0,286046999.2,P
1593046716.0,286046999.2,N
1593046735.8,286046999.4,N
1593046755.6,286046996.7,Y
1593046775.5,286046999.2,P
1593046795.3,286046999.4,P
